This demonstration page uses our WeatherBlox Daily Observations layout. Learn more.

Left ArrowRight Arrow

36.19886, -115.1175

Hourly Observations for September 8, 2021

Temp ( °F °C ) Dew Point ( °F °C ) Humidity (%) Winds ( mph kmh ) Pressure ( in mb ) Visibility ( mi km ) Precip ( " mm )
12:53 am 00:53 Clear 90 32.2 35 1.7 14 14 WNW 8 13 29.80 1009 10 16 0.00 0.00
1:53 am 01:53 Clear 92 33.3 33 0.6 12 12 NNW 8 13 29.80 1009 10 16 0.00 0.00
2:53 am 02:53 Clear 90 32.2 33 0.6 13 13 NW 3 6 29.82 1010 10 16 0.00 0.00
3:53 am 03:53 Clear 86 30 34 1.1 15 15 WNW 5 7 29.83 1010 10 16 0.00 0.00
4:53 am 04:53 Clear 84 28.9 34 1.1 17 17 WNW 5 7 29.83 1010 10 16 0.00 0.00
5:53 am 05:53 Clear 81 27.2 35 1.7 19 19 WNW 7 11 29.85 1011 10 16 0.00 0.00
6:53 am 06:53 Sunny 81 27.2 37 2.8 21 21 NW 6 9 29.86 1011 10 16 0.00 0.00
7:53 am 07:53 Sunny 85 29.4 38 3.3 19 19 Calm 29.88 1012 10 16 0.00 0.00
8:53 am 08:53 Sunny 92 33.3 36 2.2 14 14 Calm 29.88 1012 10 16 0.00 0.00
9:53 am 09:53 Sunny 96 35.6 34 1.1 11 11 Calm 29.90 1013 10 16 0.00 0.00
10:53 am 10:53 Sunny 99 37.2 28 -2.2 8 8 SSE 9 15 29.91 1013 10 16 0.00 0.00
11:53 am 11:53 Sunny 100 37.8 33 0.6 10 10 S 6 9 29.89 1012 10 16 0.00 0.00
12:53 pm 12:53 Sunny 103 39.4 35 1.7 9 9 E 6 9 29.86 1011 10 16 0.00 0.00
1:53 pm 13:53 Sunny 106 41.1 34 1.1 8 8 ENE 8 13 29.84 1011 10 16 0.00 0.00
2:53 pm 14:53 Sunny 105 40.6 37 2.8 10 10 Calm 29.82 1010 10 16 0.00 0.00
3:53 pm 15:53 Sunny 107 41.7 38 3.3 9 9 ESE 8 13 29.80 1009 10 16 0.00 0.00
4:53 pm 16:53 Sunny 107 41.7 35 1.7 8 8 SE 5 7 29.78 1009 10 16 0.00 0.00
5:53 pm 17:53 Sunny 107 41.7 36 2.2 9 9 Calm 29.79 1009 10 16 0.00 0.00
6:53 pm 18:53 Sunny 105 40.6 36 2.2 9 9 E 3 6 29.79 1009 10 16 0.00 0.00
7:53 pm 19:53 Clear 101 38.3 39 3.9 12 12 Calm 29.80 1009 10 16 0.00 0.00
8:53 pm 20:53 Clear 98 36.7 43 6.1 15 15 SSE 7 11 29.83 1010 10 16 0.00 0.00
9:53 pm 21:53 Clear 96 35.6 52 11.1 23 23 SSE 7 11 29.83 1010 10 16 0.00 0.00
10:53 pm 22:53 Clear 93 33.9 49 9.4 22 22 Calm 29.84 1011 10 16 0.00 0.00
11:53 pm 23:53 Clear 91 32.8 46 7.8 21 21 NW 3 6 29.86 1011 10 16 0.00 0.00

Powered by AerisWeather